This is the latest recevied weather packets stored in our database for station/object KJ5EHN. If no packets are shown the sender has not sent any weather packets the latest 10 day(s).
| Time | Temp. | Humidity | Pressure | Rain* | Wind** | Luminosity | Snow |
|---|---|---|---|---|---|---|---|
| 1777828381 | 25.56° C | 44% | 1020.2 hPa | 0 mm | - | - | - |
| 1777828078 | 26.11° C | 45% | 1020.5 hPa | 0 mm | - | - | - |
| 1777827774 | 26.11° C | 44% | 1020.5 hPa | 0 mm | - | - | - |
| 1777827472 | 26.11° C | 45% | 1020.6 hPa | 0 mm | - | - | - |
| 1777827169 | 26.11° C | 45% | 1020.4 hPa | 0 mm | - | - | - |
| 1777826864 | 25.56° C | 45% | 1020.4 hPa | 0 mm | - | - | - |
| 1777826563 | 25.56° C | 46% | 1020.6 hPa | 0 mm | - | - | - |
| 1777826258 | 25.56° C | 46% | 1020.7 hPa | 0 mm | - | - | - |
| 1777825957 | 25° C | 45% | 1020.7 hPa | 0 mm | - | - | - |
| 1777825653 | 25° C | 47% | 1020.6 hPa | 0 mm | - | - | - |
| 1777825351 | 25° C | 45% | 1020.8 hPa | 0 mm | - | - | - |
| 1777825048 | 24.44° C | 46% | 1020.9 hPa | 0 mm | - | - | - |
| 1777824744 | 24.44° C | 45% | 1021 hPa | 0 mm | - | - | - |
| 1777824441 | 24.44° C | 47% | 1020.8 hPa | 0 mm | - | - | - |
| 1777824137 | 24.44° C | 46% | 1020.6 hPa | 0 mm | - | - | - |
| 1777823833 | 23.89° C | 46% | 1020.8 hPa | 0 mm | - | - | - |
| 1777823531 | 24.44° C | 45% | 1020.9 hPa | 0 mm | - | - | - |
| 1777823228 | 23.89° C | 46% | 1020.8 hPa | 0 mm | - | - | - |
| 1777822926 | 24.44° C | 45% | 1020.8 hPa | 0 mm | - | - | - |
| 1777822623 | 24.44° C | 48% | 1020.9 hPa | 0 mm | - | - | - |
| 1777822320 | 23.89° C | 48% | 1020.7 hPa | 0 mm | - | - | - |
| 1777822018 | 23.89° C | 46% | 1020.7 hPa | 0 mm | - | - | - |
| 1777821716 | 23.89° C | 48% | 1020.8 hPa | 0 mm | - | - | - |
| 1777821413 | 23.33° C | 47% | 1020.9 hPa | 0 mm | - | - | - |
| 1777821110 | 23.33° C | 49% | 1020.9 hPa | 0 mm | - | - | - |
* Rain latest hour (hover to see other rain measurements)
** Current wind speed in m/s (hover to see current wind gust speed)